Simultaneous Nadir Overpasses (SNOs) Predictions

Prediction of SNOs between NPP and TERRA Satellite Orbit:

Table of predicted SNOs for the next 14.0 days since TLE Epoch: 3/25/2014
Index Date (NPP) Time (NPP) Lat,Lon (NPP) SZA (NPP ) Date (TERRA) Time (TERRA) Lat,Lon (TERRA) SZA (TERRA ) Distance(km) Time Diff (sec)
1 03/26/2014 08:11:24 -68.73,-123.82 113.59 03/26/2014 08:12:05 -68.74,-123.86 113.59 2.14 41
2 03/26/2014 09:02:09 68.65, 43.59 66.32 03/26/2014 09:01:32 68.63, 43.65 66.30 3.21 37
3 03/28/2014 23:37:52 69.23,-176.08 65.89 03/28/2014 23:39:02 69.14,-175.11 65.78 39.40 70
4 03/29/2014 00:28:26 -68.71, -8.05 114.66 03/29/2014 00:28:38 -68.70, -8.04 114.67 1.16 12
5 03/29/2014 01:19:10 68.58, 159.43 65.20 03/29/2014 01:18:05 68.59, 159.47 65.21 1.78 65
6 03/31/2014 15:54:46 68.80, -59.73 64.41 03/31/2014 15:55:40 68.80, -59.68 64.40 2.08 54
7 03/31/2014 16:45:27 -68.66, 107.78 115.75 03/31/2014 16:45:11 -68.64, 107.76 115.77 2.06 16
8 03/31/2014 17:35:58 67.83, -83.84 63.40 03/31/2014 17:34:49 67.91, -85.47 63.50 68.82 69
9 04/03/2014 08:11:46 68.76, 56.09 63.34 04/03/2014 08:12:11 68.76, 56.15 63.33 2.40 25
10 04/03/2014 09:02:27 -68.62,-136.40 116.83 04/03/2014 09:01:42 -68.61,-136.41 116.84 1.01 45
11 04/05/2014 23:38:04 -68.91, 4.34 117.53 04/05/2014 23:39:15 -68.87, 4.51 117.57 7.98 71
12 04/06/2014 00:28:46 68.68, 171.96 62.23 04/06/2014 00:28:43 68.70, 171.94 62.24 2.08 3
13 04/06/2014 01:19:27 -68.53, -20.53
